GEFSMW_prec_meanprecacc_096.txt.gz
Total_Precipitation_Accumulation
0.49 0.75 1.17 1.74 1.90 2.24 2.03 1.52 1.13 0.90 0.83 0.87 0.92 1.03 1.17 1.31 1.43 1.53 1.53 1.51 1.46 1.47 1.59 1.60 1.52 1.38 1.25 1.13 1.03 0.95 0.82 0.70 0.64 0.58 0.47 0.35 0.29 0.28 0.27 0.26 0.24 0.21 0.20
0.61 0.91 1.28 1.63 1.72 1.71 1.67 1.64 1.54 1.38 1.26 1.39 1.60 1.92 2.15 2.25 2.39 2.39 2.34 2.31 2.28 2.22 2.16 2.07 1.91 1.68 1.46 1.24 1.06 0.93 0.82 0.71 0.65 0.58 0.53 0.43 0.32 0.23 0.18 0.18 0.18 0.18 0.17
0.63 0.84 1.13 1.33 1.60 1.81 1.86 1.89 1.80 1.75 1.81 2.02 2.22 2.59 2.89 2.98 2.90 2.71 2.69 2.62 2.44 2.34 2.20 2.03 1.88 1.68 1.46 1.26 1.11 0.95 0.81 0.68 0.58 0.54 0.55 0.52 0.41 0.28 0.19 0.16 0.15 0.15 0.15
0.57 0.73 0.93 1.04 1.21 1.53 1.72 1.80 1.83 2.02 2.30 2.68 2.91 3.03 3.26 3.27 3.13 2.91 2.70 2.47 2.25 2.06 1.91 1.84 1.76 1.62 1.42 1.22 1.04 0.90 0.78 0.70 0.63 0.55 0.45 0.40 0.34 0.33 0.27 0.20 0.17 0.16 0.15
0.49 0.64 0.68 0.76 0.90 1.15 1.38 1.60 1.85 2.20 2.62 2.97 3.25 3.38 3.39 3.28 3.05 2.73 2.45 2.24 2.06 1.86 1.74 1.67 1.51 1.34 1.18 1.01 0.85 0.74 0.68 0.64 0.57 0.47 0.39 0.35 0.30 0.29 0.31 0.25 0.17 0.14 0.13
0.40 0.50 0.57 0.59 0.74 0.96 1.21 1.40 1.73 2.22 2.53 2.81 3.14 3.20 3.17 3.06 2.86 2.60 2.34 2.14 1.95 1.78 1.57 1.36 1.21 1.08 0.95 0.81 0.69 0.59 0.52 0.48 0.45 0.40 0.37 0.35 0.33 0.31 0.33 0.30 0.22 0.17 0.14
0.37 0.49 0.52 0.56 0.76 0.99 1.22 1.45 1.75 2.07 2.24 2.32 2.45 2.58 2.61 2.57 2.51 2.36 2.12 1.85 1.62 1.39 1.21 1.02 0.89 0.82 0.76 0.69 0.59 0.51 0.43 0.39 0.39 0.37 0.37 0.35 0.33 0.30 0.31 0.33 0.28 0.23 0.18
0.47 0.52 0.58 0.61 0.77 0.90 1.06 1.23 1.39 1.59 1.72 1.73 1.82 1.96 2.03 2.04 1.99 1.80 1.57 1.35 1.15 0.96 0.79 0.68 0.60 0.52 0.46 0.43 0.43 0.43 0.42 0.39 0.39 0.37 0.38 0.37 0.33 0.31 0.32 0.35 0.38 0.34 0.25
0.50 0.55 0.61 0.69 0.81 0.83 0.88 0.92 0.96 1.01 1.12 1.20 1.23 1.25 1.25 1.26 1.26 1.17 1.04 0.95 0.85 0.72 0.59 0.52 0.48 0.44 0.39 0.36 0.36 0.36 0.38 0.39 0.39 0.38 0.39 0.37 0.33 0.30 0.30 0.32 0.40 0.45 0.38
0.50 0.57 0.58 0.59 0.63 0.61 0.65 0.67 0.64 0.68 0.72 0.71 0.70 0.73 0.77 0.79 0.77 0.69 0.65 0.64 0.62 0.57 0.51 0.48 0.45 0.41 0.37 0.36 0.37 0.38 0.39 0.39 0.37 0.34 0.30 0.26 0.23 0.21 0.20 0.22 0.26 0.35 0.42
0.54 0.54 0.53 0.48 0.43 0.41 0.42 0.46 0.44 0.42 0.42 0.42 0.44 0.47 0.48 0.49 0.49 0.48 0.46 0.43 0.42 0.42 0.42 0.40 0.37 0.36 0.36 0.36 0.36 0.33 0.29 0.26 0.24 0.21 0.19 0.19 0.18 0.19 0.18 0.21 0.25 0.30 0.40
0.56 0.52 0.48 0.44 0.39 0.35 0.32 0.31 0.32 0.33 0.31 0.28 0.27 0.29 0.31 0.30 0.30 0.32 0.35 0.34 0.33 0.33 0.33 0.30 0.29 0.27 0.26 0.25 0.23 0.21 0.19 0.18 0.17 0.17 0.18 0.17 0.18 0.19 0.20 0.24 0.28 0.32 0.42
0.71 0.62 0.51 0.43 0.38 0.34 0.31 0.28 0.29 0.29 0.27 0.24 0.23 0.22 0.22 0.23 0.23 0.23 0.24 0.24 0.24 0.24 0.24 0.23 0.23 0.21 0.19 0.18 0.17 0.17 0.15 0.15 0.16 0.17 0.18 0.18 0.22 0.24 0.28 0.36 0.40 0.42 0.46
0.83 0.67 0.57 0.48 0.41 0.37 0.34 0.32 0.31 0.29 0.25 0.22 0.18 0.18 0.19 0.21 0.20 0.20 0.21 0.21 0.20 0.21 0.22 0.20 0.18 0.16 0.14 0.12 0.11 0.11 0.10 0.12 0.14 0.17 0.21 0.25 0.30 0.35 0.40 0.42 0.43 0.48 0.54
0.88 0.75 0.68 0.59 0.48 0.43 0.40 0.37 0.34 0.30 0.24 0.20 0.19 0.21 0.23 0.25 0.25 0.25 0.25 0.25 0.25 0.23 0.22 0.19 0.16 0.14 0.11 0.08 0.06 0.05 0.07 0.11 0.14 0.17 0.20 0.25 0.33 0.40 0.39 0.37 0.39 0.50 0.62
1.06 1.02 0.95 0.83 0.69 0.57 0.50 0.45 0.41 0.37 0.33 0.33 0.34 0.34 0.33 0.32 0.32 0.31 0.30 0.29 0.27 0.23 0.19 0.15 0.12 0.10 0.06 0.05 0.05 0.05 0.07 0.13 0.18 0.21 0.22 0.20 0.23 0.22 0.23 0.29 0.35 0.46 0.64
1.36 1.26 1.10 0.95 0.83 0.73 0.66 0.62 0.56 0.51 0.49 0.48 0.45 0.40 0.37 0.35 0.33 0.30 0.31 0.29 0.24 0.19 0.15 0.12 0.08 0.08 0.05 0.03 0.04 0.05 0.07 0.15 0.22 0.26 0.24 0.19 0.15 0.18 0.22 0.26 0.31 0.43 0.59
1.24 1.13 0.98 0.86 0.82 0.80 0.77 0.69 0.60 0.56 0.53 0.51 0.47 0.39 0.32 0.29 0.28 0.29 0.27 0.21 0.16 0.15 0.13 0.10 0.07 0.09 0.05 0.02 0.02 0.03 0.06 0.14 0.19 0.22 0.23 0.24 0.24 0.21 0.24 0.25 0.31 0.45 0.61
1.02 0.97 0.91 0.88 0.89 0.87 0.78 0.70 0.63 0.56 0.52 0.47 0.38 0.29 0.23 0.23 0.22 0.20 0.17 0.15 0.15 0.14 0.09 0.06 0.07 0.09 0.07 0.02 0.02 0.02 0.05 0.10 0.14 0.17 0.18 0.16 0.20 0.21 0.32 0.41 0.53 0.66 0.83
0.90 0.92 0.98 1.02 0.97 0.85 0.69 0.60 0.53 0.45 0.38 0.30 0.24 0.20 0.17 0.14 0.12 0.13 0.13 0.13 0.13 0.11 0.07 0.05 0.06 0.09 0.09 0.02 0.00 0.01 0.04 0.07 0.10 0.15 0.20 0.17 0.17 0.25 0.41 0.57 0.73 0.85 0.97
0.86 0.89 0.89 0.86 0.79 0.67 0.56 0.52 0.44 0.36 0.25 0.18 0.15 0.12 0.09 0.08 0.07 0.10 0.12 0.12 0.10 0.10 0.08 0.07 0.08 0.09 0.06 0.03 0.00 0.01 0.02 0.04 0.08 0.15 0.25 0.30 0.25 0.32 0.52 0.71 0.80 0.97 1.05
0.80 0.77 0.70 0.63 0.53 0.44 0.41 0.40 0.33 0.23 0.14 0.11 0.08 0.07 0.06 0.04 0.05 0.10 0.11 0.11 0.12 0.11 0.09 0.09 0.08 0.09 0.09 0.04 0.01 0.00 0.01 0.04 0.11 0.25 0.31 0.36 0.35 0.41 0.61 0.77 0.96 1.16 1.25
0.63 0.57 0.47 0.40 0.33 0.27 0.27 0.27 0.20 0.13 0.10 0.10 0.10 0.08 0.06 0.06 0.05 0.09 0.10 0.10 0.10 0.09 0.07 0.07 0.08 0.08 0.11 0.08 0.01 0.01 0.02 0.04 0.12 0.26 0.35 0.39 0.42 0.57 0.86 1.06 1.21 1.33 1.34
0.42 0.36 0.30 0.26 0.21 0.16 0.15 0.13 0.09 0.08 0.11 0.12 0.11 0.10 0.11 0.10 0.08 0.08 0.06 0.07 0.07 0.06 0.07 0.08 0.09 0.11 0.12 0.08 0.05 0.05 0.06 0.08 0.13 0.26 0.40 0.51 0.58 0.74 1.02 1.23 1.39 1.42 1.30
0.23 0.20 0.18 0.15 0.10 0.08 0.06 0.05 0.05 0.06 0.10 0.11 0.10 0.09 0.10 0.11 0.11 0.09 0.04 0.03 0.04 0.02 0.04 0.07 0.09 0.11 0.11 0.06 0.07 0.09 0.10 0.11 0.16 0.25 0.40 0.54 0.66 0.84 1.04 1.20 1.29 1.28 1.18
0.13 0.12 0.10 0.08 0.06 0.04 0.03 0.02 0.02 0.04 0.10 0.11 0.09 0.07 0.07 0.07 0.08 0.13 0.10 0.02 0.01 0.01 0.02 0.03 0.05 0.06 0.06 0.05 0.07 0.10 0.13 0.17 0.23 0.30 0.43 0.54 0.66 0.84 1.02 1.13 1.14 1.07 0.99

GEFSMW_prec_meanprecacc_102.txt.gz
Total_Precipitation_Accumulation
0.52 0.81 1.24 1.85 2.06 2.49 2.27 1.78 1.45 1.32 1.26 1.23 1.25 1.32 1.44 1.58 1.71 1.84 1.84 1.80 1.73 1.71 1.81 1.80 1.71 1.57 1.42 1.28 1.16 1.05 0.90 0.79 0.75 0.68 0.54 0.41 0.35 0.33 0.32 0.30 0.28 0.25 0.24
0.65 0.97 1.37 1.76 1.90 1.95 1.99 2.01 1.96 1.94 1.83 1.86 2.06 2.37 2.54 2.61 2.72 2.71 2.67 2.65 2.59 2.50 2.43 2.33 2.15 1.91 1.66 1.40 1.21 1.07 0.96 0.85 0.78 0.71 0.64 0.52 0.39 0.28 0.22 0.21 0.21 0.21 0.21
0.68 0.91 1.22 1.49 1.83 2.12 2.21 2.32 2.27 2.36 2.50 2.64 2.75 3.08 3.35 3.39 3.26 3.01 2.96 2.89 2.68 2.56 2.44 2.30 2.13 1.92 1.68 1.45 1.28 1.10 0.97 0.84 0.74 0.70 0.70 0.63 0.49 0.34 0.23 0.20 0.18 0.18 0.18
0.62 0.79 1.00 1.18 1.43 1.79 2.04 2.22 2.38 2.62 2.94 3.31 3.56 3.61 3.71 3.68 3.51 3.24 2.97 2.72 2.47 2.26 2.09 2.04 1.96 1.82 1.62 1.41 1.22 1.06 0.93 0.85 0.76 0.68 0.58 0.51 0.44 0.42 0.34 0.25 0.21 0.19 0.18
0.55 0.70 0.74 0.85 1.07 1.38 1.62 1.87 2.21 2.61 3.09 3.47 3.78 3.93 3.90 3.71 3.43 3.02 2.68 2.43 2.23 2.01 1.88 1.81 1.67 1.49 1.34 1.17 1.00 0.87 0.79 0.75 0.69 0.60 0.53 0.49 0.43 0.39 0.39 0.32 0.22 0.19 0.16
0.45 0.56 0.63 0.68 0.86 1.10 1.38 1.60 1.96 2.48 2.81 3.14 3.49 3.57 3.57 3.43 3.17 2.82 2.52 2.28 2.08 1.88 1.67 1.45 1.30 1.17 1.05 0.91 0.79 0.68 0.60 0.55 0.54 0.50 0.47 0.44 0.42 0.41 0.41 0.38 0.28 0.23 0.19
0.42 0.54 0.58 0.68 0.89 1.11 1.36 1.61 1.92 2.27 2.41 2.50 2.66 2.80 2.84 2.80 2.73 2.56 2.28 1.97 1.73 1.48 1.30 1.11 0.98 0.90 0.84 0.75 0.66 0.59 0.50 0.45 0.44 0.42 0.42 0.41 0.39 0.37 0.39 0.40 0.34 0.29 0.23
0.53 0.57 0.67 0.76 0.93 1.03 1.17 1.35 1.52 1.74 1.85 1.85 1.96 2.12 2.21 2.22 2.15 1.95 1.70 1.45 1.24 1.04 0.87 0.76 0.68 0.59 0.51 0.48 0.47 0.47 0.46 0.44 0.43 0.43 0.45 0.46 0.43 0.40 0.40 0.42 0.44 0.40 0.30
0.54 0.59 0.66 0.77 0.96 0.98 1.01 1.03 1.05 1.12 1.23 1.31 1.35 1.35 1.36 1.37 1.36 1.27 1.14 1.04 0.93 0.79 0.66 0.58 0.53 0.49 0.43 0.40 0.39 0.39 0.40 0.41 0.41 0.41 0.42 0.43 0.39 0.35 0.34 0.35 0.42 0.48 0.41
0.54 0.61 0.62 0.63 0.71 0.76 0.79 0.80 0.73 0.78 0.83 0.82 0.80 0.81 0.85 0.89 0.87 0.77 0.72 0.69 0.67 0.61 0.56 0.53 0.49 0.45 0.41 0.40 0.40 0.39 0.40 0.39 0.37 0.35 0.31 0.28 0.24 0.22 0.21 0.23 0.27 0.36 0.44
0.59 0.58 0.57 0.53 0.49 0.50 0.57 0.63 0.59 0.55 0.54 0.53 0.53 0.53 0.53 0.54 0.55 0.53 0.49 0.46 0.44 0.44 0.45 0.42 0.40 0.39 0.39 0.37 0.37 0.34 0.30 0.27 0.25 0.21 0.20 0.19 0.18 0.19 0.19 0.21 0.25 0.30 0.41
0.62 0.57 0.54 0.52 0.48 0.45 0.45 0.46 0.49 0.48 0.46 0.39 0.36 0.35 0.35 0.33 0.33 0.35 0.37 0.35 0.35 0.36 0.36 0.33 0.31 0.29 0.26 0.25 0.24 0.22 0.19 0.19 0.18 0.18 0.19 0.18 0.18 0.20 0.21 0.25 0.28 0.32 0.43
0.79 0.69 0.59 0.54 0.50 0.45 0.41 0.39 0.41 0.41 0.38 0.33 0.30 0.27 0.26 0.25 0.25 0.25 0.25 0.25 0.25 0.26 0.25 0.24 0.24 0.22 0.20 0.18 0.18 0.17 0.16 0.15 0.16 0.18 0.19 0.19 0.22 0.24 0.28 0.36 0.40 0.43 0.46
0.93 0.76 0.65 0.59 0.54 0.47 0.41 0.39 0.38 0.36 0.32 0.28 0.24 0.22 0.23 0.23 0.22 0.21 0.21 0.21 0.21 0.22 0.22 0.20 0.19 0.17 0.14 0.13 0.12 0.11 0.10 0.12 0.14 0.17 0.21 0.25 0.31 0.35 0.41 0.43 0.44 0.49 0.55
0.96 0.82 0.76 0.70 0.60 0.53 0.48 0.43 0.40 0.35 0.29 0.25 0.24 0.25 0.26 0.26 0.26 0.26 0.25 0.25 0.25 0.23 0.22 0.19 0.16 0.14 0.12 0.08 0.06 0.05 0.07 0.11 0.15 0.17 0.20 0.25 0.33 0.40 0.39 0.37 0.40 0.50 0.63
1.14 1.10 1.04 0.94 0.81 0.65 0.56 0.50 0.45 0.41 0.36 0.35 0.36 0.36 0.35 0.33 0.32 0.31 0.30 0.30 0.27 0.24 0.19 0.15 0.12 0.10 0.06 0.05 0.06 0.05 0.08 0.13 0.18 0.22 0.22 0.20 0.23 0.22 0.23 0.29 0.35 0.46 0.64
1.44 1.36 1.19 1.04 0.91 0.79 0.71 0.65 0.58 0.54 0.51 0.50 0.47 0.42 0.37 0.36 0.33 0.30 0.31 0.29 0.24 0.19 0.15 0.12 0.08 0.08 0.05 0.04 0.04 0.05 0.07 0.15 0.22 0.26 0.24 0.19 0.15 0.18 0.22 0.26 0.31 0.43 0.59
1.31 1.20 1.03 0.91 0.86 0.85 0.81 0.71 0.63 0.58 0.55 0.53 0.49 0.40 0.32 0.29 0.28 0.29 0.27 0.21 0.16 0.15 0.13 0.10 0.07 0.09 0.05 0.02 0.02 0.03 0.06 0.14 0.19 0.22 0.23 0.24 0.24 0.21 0.24 0.25 0.31 0.45 0.61
1.10 1.04 0.97 0.92 0.93 0.90 0.81 0.72 0.65 0.58 0.53 0.48 0.38 0.29 0.23 0.23 0.22 0.20 0.17 0.15 0.15 0.14 0.09 0.06 0.07 0.09 0.07 0.02 0.02 0.02 0.05 0.10 0.14 0.17 0.18 0.16 0.20 0.21 0.32 0.41 0.54 0.67 0.84
0.96 0.99 1.05 1.09 1.03 0.90 0.73 0.63 0.55 0.46 0.39 0.31 0.24 0.20 0.18 0.14 0.13 0.13 0.13 0.13 0.13 0.11 0.07 0.05 0.06 0.09 0.09 0.02 0.00 0.01 0.04 0.07 0.10 0.15 0.20 0.17 0.17 0.25 0.41 0.57 0.73 0.85 0.97
0.91 0.94 0.94 0.92 0.84 0.72 0.62 0.57 0.47 0.37 0.27 0.20 0.16 0.13 0.10 0.08 0.07 0.10 0.12 0.12 0.10 0.10 0.08 0.07 0.08 0.09 0.06 0.03 0.00 0.01 0.02 0.04 0.08 0.15 0.25 0.30 0.25 0.32 0.52 0.71 0.80 0.97 1.05
0.84 0.81 0.75 0.70 0.59 0.48 0.46 0.45 0.37 0.25 0.17 0.13 0.10 0.08 0.06 0.04 0.05 0.10 0.11 0.11 0.12 0.11 0.09 0.09 0.08 0.09 0.09 0.04 0.01 0.00 0.01 0.04 0.11 0.25 0.31 0.36 0.35 0.41 0.61 0.77 0.96 1.16 1.25
0.66 0.60 0.51 0.45 0.38 0.32 0.32 0.31 0.24 0.16 0.12 0.11 0.10 0.08 0.06 0.06 0.05 0.09 0.11 0.10 0.10 0.09 0.07 0.07 0.08 0.08 0.11 0.08 0.01 0.01 0.02 0.04 0.12 0.26 0.35 0.39 0.42 0.57 0.86 1.06 1.21 1.33 1.34
0.45 0.39 0.33 0.28 0.24 0.20 0.19 0.16 0.12 0.11 0.13 0.13 0.11 0.10 0.11 0.11 0.08 0.08 0.06 0.07 0.07 0.06 0.07 0.08 0.10 0.11 0.12 0.08 0.05 0.05 0.06 0.08 0.13 0.26 0.41 0.52 0.58 0.75 1.02 1.23 1.39 1.43 1.31
0.24 0.21 0.19 0.16 0.13 0.10 0.09 0.08 0.07 0.08 0.12 0.12 0.10 0.09 0.10 0.11 0.11 0.09 0.04 0.03 0.04 0.02 0.04 0.07 0.09 0.11 0.11 0.07 0.07 0.09 0.10 0.11 0.16 0.26 0.40 0.54 0.66 0.85 1.05 1.21 1.29 1.28 1.18
0.14 0.12 0.11 0.09 0.07 0.05 0.04 0.03 0.03 0.05 0.11 0.11 0.09 0.07 0.07 0.07 0.08 0.13 0.10 0.02 0.01 0.01 0.02 0.03 0.05 0.06 0.06 0.05 0.07 0.10 0.13 0.17 0.23 0.30 0.43 0.55 0.67 0.84 1.02 1.14 1.14 1.07 0.99

GEFSMW_prec_meanprecacc_108.txt.gz
Total_Precipitation_Accumulation
0.55 0.84 1.28 1.90 2.11 2.55 2.33 1.86 1.55 1.45 1.40 1.38 1.38 1.45 1.57 1.72 1.87 2.02 2.02 1.97 1.89 1.89 1.97 1.96 1.85 1.69 1.54 1.41 1.29 1.17 1.03 0.90 0.86 0.79 0.63 0.48 0.40 0.37 0.35 0.33 0.31 0.28 0.26
0.67 1.00 1.40 1.79 1.94 1.99 2.03 2.07 2.03 2.02 1.94 2.00 2.22 2.53 2.73 2.81 2.92 2.90 2.86 2.82 2.77 2.68 2.61 2.50 2.30 2.05 1.79 1.53 1.33 1.18 1.07 0.96 0.92 0.87 0.80 0.66 0.49 0.34 0.25 0.24 0.23 0.24 0.24
0.70 0.93 1.25 1.51 1.86 2.16 2.26 2.38 2.34 2.45 2.63 2.80 2.94 3.29 3.60 3.65 3.49 3.22 3.16 3.07 2.85 2.72 2.60 2.46 2.29 2.06 1.82 1.58 1.42 1.25 1.11 0.98 0.89 0.85 0.85 0.78 0.61 0.42 0.29 0.24 0.21 0.21 0.20
0.65 0.82 1.04 1.20 1.47 1.83 2.10 2.28 2.45 2.70 3.07 3.49 3.75 3.81 3.94 3.92 3.75 3.47 3.19 2.92 2.65 2.43 2.25 2.18 2.10 1.94 1.74 1.54 1.35 1.20 1.06 0.97 0.86 0.77 0.66 0.60 0.53 0.51 0.42 0.31 0.25 0.21 0.20
0.58 0.73 0.77 0.89 1.11 1.43 1.68 1.94 2.27 2.69 3.22 3.63 3.97 4.16 4.14 3.96 3.70 3.30 2.95 2.65 2.42 2.18 2.03 1.94 1.79 1.60 1.44 1.27 1.10 0.99 0.90 0.84 0.77 0.66 0.58 0.55 0.50 0.47 0.49 0.40 0.28 0.23 0.20
0.48 0.59 0.67 0.71 0.90 1.14 1.42 1.66 2.03 2.57 2.94 3.31 3.70 3.82 3.85 3.69 3.43 3.06 2.74 2.48 2.25 2.03 1.80 1.57 1.40 1.26 1.13 0.98 0.87 0.77 0.68 0.62 0.60 0.54 0.51 0.48 0.47 0.46 0.49 0.46 0.35 0.29 0.24
0.46 0.59 0.62 0.71 0.92 1.14 1.40 1.67 1.99 2.37 2.55 2.66 2.83 3.02 3.06 3.00 2.92 2.75 2.49 2.18 1.91 1.64 1.44 1.24 1.10 1.00 0.92 0.83 0.73 0.66 0.57 0.51 0.49 0.45 0.44 0.43 0.41 0.40 0.43 0.45 0.41 0.36 0.28
0.57 0.61 0.69 0.78 0.95 1.05 1.20 1.39 1.59 1.84 1.96 1.97 2.08 2.25 2.34 2.35 2.28 2.08 1.81 1.57 1.35 1.15 0.97 0.86 0.78 0.67 0.59 0.56 0.55 0.55 0.53 0.50 0.49 0.47 0.48 0.48 0.45 0.42 0.42 0.45 0.48 0.44 0.34
0.60 0.64 0.68 0.79 0.97 1.00 1.05 1.10 1.12 1.22 1.33 1.40 1.45 1.46 1.48 1.47 1.45 1.34 1.20 1.10 0.98 0.84 0.71 0.63 0.59 0.53 0.47 0.43 0.42 0.44 0.45 0.46 0.45 0.44 0.45 0.45 0.42 0.37 0.36 0.37 0.44 0.50 0.43
0.58 0.65 0.64 0.65 0.74 0.79 0.84 0.87 0.80 0.86 0.92 0.91 0.90 0.92 0.97 1.01 0.97 0.85 0.78 0.75 0.72 0.66 0.60 0.56 0.52 0.47 0.42 0.41 0.42 0.41 0.42 0.42 0.40 0.36 0.33 0.29 0.26 0.24 0.23 0.25 0.28 0.37 0.46
0.63 0.62 0.60 0.55 0.52 0.52 0.60 0.69 0.66 0.64 0.64 0.63 0.64 0.62 0.62 0.64 0.66 0.62 0.58 0.53 0.51 0.50 0.48 0.45 0.42 0.41 0.40 0.38 0.37 0.35 0.31 0.29 0.27 0.23 0.22 0.21 0.20 0.21 0.21 0.23 0.27 0.32 0.43
0.67 0.62 0.59 0.56 0.52 0.49 0.49 0.51 0.55 0.58 0.56 0.50 0.49 0.45 0.43 0.41 0.42 0.44 0.46 0.43 0.42 0.42 0.40 0.36 0.34 0.31 0.28 0.26 0.24 0.22 0.20 0.20 0.19 0.19 0.21 0.20 0.20 0.21 0.22 0.26 0.29 0.34 0.44
0.83 0.74 0.64 0.61 0.58 0.53 0.49 0.46 0.49 0.52 0.50 0.45 0.43 0.38 0.36 0.32 0.32 0.32 0.32 0.31 0.30 0.30 0.29 0.27 0.27 0.25 0.23 0.21 0.20 0.19 0.16 0.16 0.17 0.18 0.20 0.20 0.23 0.26 0.29 0.37 0.41 0.44 0.48
0.97 0.81 0.70 0.64 0.61 0.59 0.54 0.50 0.49 0.47 0.45 0.42 0.39 0.36 0.34 0.32 0.29 0.27 0.25 0.24 0.24 0.24 0.24 0.22 0.20 0.18 0.16 0.14 0.14 0.12 0.12 0.13 0.16 0.19 0.23 0.26 0.32 0.37 0.42 0.44 0.46 0.50 0.56
1.01 0.88 0.82 0.77 0.67 0.64 0.59 0.55 0.52 0.47 0.40 0.37 0.36 0.37 0.37 0.36 0.33 0.31 0.28 0.27 0.27 0.24 0.23 0.20 0.17 0.15 0.12 0.08 0.06 0.06 0.08 0.13 0.16 0.18 0.21 0.26 0.34 0.41 0.40 0.38 0.41 0.52 0.64
1.19 1.17 1.11 1.03 0.90 0.75 0.65 0.60 0.55 0.51 0.45 0.44 0.45 0.45 0.43 0.39 0.37 0.35 0.33 0.32 0.29 0.25 0.20 0.16 0.13 0.11 0.06 0.05 0.06 0.05 0.08 0.14 0.19 0.22 0.23 0.21 0.24 0.23 0.24 0.30 0.36 0.47 0.65
1.50 1.44 1.28 1.13 0.99 0.87 0.80 0.74 0.66 0.61 0.59 0.57 0.53 0.47 0.42 0.39 0.36 0.32 0.33 0.31 0.26 0.20 0.17 0.13 0.09 0.09 0.06 0.04 0.04 0.05 0.08 0.15 0.23 0.27 0.25 0.20 0.16 0.18 0.23 0.27 0.31 0.43 0.59
1.39 1.29 1.14 1.01 0.95 0.93 0.90 0.80 0.70 0.64 0.60 0.57 0.52 0.43 0.35 0.31 0.30 0.30 0.28 0.22 0.18 0.16 0.14 0.11 0.08 0.10 0.05 0.02 0.02 0.03 0.07 0.15 0.20 0.23 0.23 0.25 0.25 0.22 0.24 0.26 0.32 0.45 0.62
1.18 1.14 1.09 1.02 1.01 0.99 0.90 0.80 0.72 0.63 0.57 0.51 0.41 0.31 0.25 0.24 0.23 0.21 0.18 0.16 0.16 0.15 0.10 0.07 0.07 0.10 0.08 0.02 0.02 0.02 0.06 0.11 0.15 0.18 0.18 0.17 0.21 0.22 0.32 0.42 0.55 0.68 0.85
1.02 1.09 1.16 1.19 1.12 0.98 0.79 0.69 0.62 0.51 0.42 0.33 0.26 0.21 0.19 0.15 0.13 0.13 0.14 0.14 0.14 0.12 0.07 0.05 0.07 0.10 0.10 0.02 0.00 0.01 0.04 0.08 0.11 0.16 0.21 0.18 0.17 0.25 0.42 0.58 0.75 0.88 1.00
0.96 1.02 1.04 1.02 0.94 0.82 0.69 0.62 0.51 0.41 0.29 0.21 0.18 0.15 0.11 0.09 0.08 0.11 0.13 0.12 0.11 0.11 0.09 0.08 0.10 0.10 0.06 0.03 0.00 0.01 0.03 0.05 0.09 0.17 0.27 0.31 0.25 0.32 0.52 0.71 0.82 0.98 1.05
0.88 0.87 0.82 0.77 0.66 0.55 0.51 0.51 0.42 0.28 0.19 0.15 0.12 0.10 0.07 0.04 0.05 0.11 0.12 0.12 0.13 0.12 0.10 0.10 0.10 0.10 0.10 0.05 0.02 0.00 0.01 0.04 0.12 0.26 0.32 0.37 0.35 0.41 0.61 0.77 0.97 1.16 1.25
0.70 0.65 0.55 0.48 0.43 0.37 0.36 0.36 0.29 0.19 0.14 0.13 0.12 0.09 0.06 0.06 0.06 0.10 0.12 0.11 0.11 0.10 0.08 0.09 0.10 0.10 0.12 0.09 0.02 0.01 0.02 0.04 0.13 0.27 0.35 0.40 0.42 0.58 0.88 1.07 1.21 1.34 1.36
0.49 0.42 0.35 0.30 0.27 0.23 0.21 0.20 0.16 0.14 0.15 0.16 0.13 0.11 0.12 0.11 0.09 0.09 0.07 0.07 0.08 0.07 0.08 0.09 0.11 0.13 0.14 0.09 0.05 0.05 0.07 0.09 0.15 0.28 0.42 0.53 0.60 0.77 1.05 1.25 1.41 1.45 1.33
0.27 0.24 0.21 0.18 0.15 0.12 0.10 0.10 0.09 0.10 0.15 0.14 0.11 0.10 0.11 0.11 0.11 0.10 0.04 0.03 0.04 0.02 0.04 0.08 0.09 0.12 0.12 0.07 0.07 0.09 0.10 0.12 0.16 0.27 0.42 0.57 0.70 0.89 1.08 1.24 1.31 1.31 1.20
0.16 0.15 0.13 0.11 0.09 0.06 0.05 0.05 0.05 0.07 0.13 0.13 0.10 0.07 0.07 0.07 0.09 0.13 0.11 0.03 0.01 0.01 0.02 0.03 0.05 0.06 0.07 0.05 0.07 0.10 0.13 0.17 0.23 0.32 0.45 0.56 0.68 0.86 1.05 1.17 1.16 1.08 1.00

GEFSMW_prec_meanprecacc_114.txt.gz
Total_Precipitation_Accumulation
0.57 0.86 1.34 1.96 2.20 2.69 2.51 2.07 1.78 1.65 1.57 1.54 1.54 1.63 1.79 1.93 2.07 2.21 2.22 2.19 2.14 2.17 2.26 2.21 2.10 1.91 1.74 1.61 1.49 1.37 1.22 1.08 1.03 0.95 0.76 0.56 0.45 0.42 0.40 0.38 0.35 0.32 0.30
0.72 1.03 1.43 1.83 2.00 2.09 2.16 2.24 2.23 2.21 2.10 2.15 2.38 2.69 2.88 2.96 3.08 3.04 2.99 2.98 2.96 2.93 2.89 2.77 2.52 2.24 1.98 1.72 1.52 1.36 1.24 1.10 1.05 1.03 0.96 0.79 0.60 0.42 0.31 0.29 0.28 0.29 0.29
0.74 0.97 1.28 1.54 1.90 2.23 2.36 2.49 2.50 2.61 2.79 2.96 3.08 3.42 3.72 3.80 3.65 3.36 3.29 3.21 3.03 2.93 2.81 2.67 2.49 2.25 1.99 1.76 1.60 1.43 1.28 1.11 1.02 0.99 1.01 0.93 0.73 0.51 0.35 0.30 0.27 0.26 0.26
0.68 0.85 1.06 1.24 1.51 1.88 2.16 2.34 2.53 2.80 3.19 3.64 3.89 3.97 4.09 4.05 3.87 3.60 3.34 3.05 2.79 2.59 2.43 2.37 2.28 2.10 1.89 1.69 1.50 1.36 1.21 1.12 0.99 0.88 0.78 0.73 0.63 0.61 0.49 0.37 0.31 0.27 0.26
0.61 0.76 0.79 0.91 1.15 1.46 1.71 1.97 2.31 2.74 3.29 3.72 4.08 4.29 4.27 4.08 3.83 3.42 3.06 2.78 2.54 2.30 2.15 2.08 1.92 1.71 1.55 1.39 1.23 1.12 1.05 1.00 0.92 0.80 0.71 0.66 0.61 0.58 0.59 0.48 0.33 0.27 0.24
0.50 0.62 0.68 0.73 0.92 1.16 1.45 1.69 2.06 2.61 2.99 3.38 3.79 3.92 3.95 3.80 3.55 3.18 2.85 2.59 2.36 2.14 1.92 1.69 1.53 1.37 1.23 1.09 0.97 0.87 0.78 0.73 0.70 0.65 0.61 0.58 0.57 0.55 0.58 0.54 0.41 0.33 0.28
0.49 0.61 0.64 0.74 0.95 1.17 1.43 1.70 2.03 2.41 2.60 2.71 2.91 3.13 3.20 3.15 3.08 2.90 2.63 2.31 2.02 1.73 1.53 1.34 1.20 1.10 1.02 0.93 0.83 0.74 0.64 0.57 0.55 0.52 0.51 0.50 0.48 0.46 0.49 0.53 0.48 0.42 0.33
0.60 0.63 0.71 0.81 0.99 1.10 1.25 1.44 1.63 1.89 2.01 2.02 2.14 2.34 2.45 2.47 2.42 2.21 1.94 1.70 1.48 1.26 1.06 0.94 0.87 0.78 0.69 0.66 0.66 0.65 0.63 0.58 0.56 0.54 0.55 0.55 0.51 0.47 0.48 0.52 0.56 0.52 0.41
0.63 0.68 0.72 0.85 1.03 1.06 1.10 1.14 1.14 1.25 1.36 1.43 1.49 1.52 1.55 1.57 1.54 1.43 1.29 1.18 1.06 0.92 0.78 0.69 0.65 0.61 0.56 0.52 0.50 0.51 0.53 0.54 0.52 0.51 0.52 0.52 0.48 0.43 0.42 0.44 0.52 0.58 0.51
0.63 0.70 0.70 0.71 0.80 0.84 0.88 0.90 0.82 0.89 0.96 0.96 0.95 0.98 1.05 1.12 1.08 0.94 0.87 0.83 0.78 0.71 0.65 0.60 0.55 0.51 0.47 0.46 0.47 0.47 0.47 0.46 0.44 0.40 0.36 0.32 0.29 0.27 0.27 0.30 0.35 0.44 0.52
0.67 0.66 0.63 0.59 0.56 0.56 0.63 0.70 0.67 0.66 0.68 0.69 0.71 0.70 0.71 0.75 0.77 0.73 0.66 0.61 0.58 0.55 0.53 0.49 0.47 0.45 0.44 0.42 0.41 0.38 0.34 0.32 0.30 0.27 0.24 0.23 0.23 0.24 0.23 0.25 0.30 0.35 0.47
0.70 0.65 0.62 0.59 0.55 0.53 0.52 0.53 0.57 0.61 0.60 0.55 0.55 0.53 0.52 0.51 0.53 0.55 0.56 0.51 0.51 0.50 0.46 0.41 0.38 0.36 0.32 0.29 0.27 0.24 0.22 0.22 0.22 0.22 0.23 0.22 0.22 0.24 0.24 0.28 0.31 0.36 0.47
0.86 0.76 0.67 0.63 0.61 0.57 0.53 0.50 0.53 0.56 0.54 0.48 0.48 0.46 0.45 0.42 0.42 0.43 0.42 0.40 0.39 0.39 0.36 0.32 0.32 0.29 0.27 0.25 0.22 0.21 0.19 0.18 0.19 0.21 0.22 0.22 0.25 0.27 0.31 0.39 0.43 0.46 0.49
0.99 0.84 0.74 0.68 0.64 0.62 0.59 0.54 0.53 0.51 0.49 0.46 0.45 0.43 0.44 0.43 0.40 0.37 0.34 0.33 0.32 0.32 0.33 0.31 0.27 0.23 0.20 0.18 0.17 0.16 0.15 0.16 0.17 0.20 0.24 0.27 0.33 0.38 0.43 0.46 0.48 0.52 0.58
1.04 0.90 0.86 0.82 0.71 0.68 0.65 0.60 0.56 0.52 0.46 0.42 0.43 0.47 0.48 0.48 0.45 0.42 0.39 0.39 0.37 0.32 0.31 0.29 0.25 0.21 0.17 0.13 0.10 0.08 0.10 0.15 0.18 0.20 0.22 0.27 0.35 0.41 0.41 0.39 0.42 0.53 0.66
1.22 1.19 1.16 1.11 0.95 0.79 0.70 0.65 0.60 0.56 0.51 0.51 0.53 0.54 0.51 0.48 0.46 0.44 0.41 0.41 0.38 0.32 0.27 0.23 0.19 0.16 0.09 0.08 0.08 0.07 0.10 0.15 0.21 0.24 0.24 0.22 0.24 0.23 0.24 0.31 0.37 0.48 0.66
1.53 1.48 1.33 1.19 1.04 0.92 0.84 0.78 0.72 0.67 0.65 0.64 0.60 0.54 0.49 0.46 0.43 0.38 0.39 0.37 0.31 0.26 0.23 0.18 0.14 0.13 0.08 0.05 0.05 0.06 0.10 0.18 0.25 0.29 0.28 0.21 0.16 0.19 0.24 0.27 0.32 0.44 0.60
1.43 1.34 1.20 1.07 1.00 0.99 0.94 0.83 0.75 0.70 0.67 0.64 0.58 0.49 0.41 0.38 0.38 0.38 0.34 0.28 0.24 0.22 0.20 0.16 0.13 0.13 0.07 0.03 0.03 0.04 0.09 0.18 0.23 0.25 0.26 0.28 0.27 0.23 0.25 0.27 0.33 0.47 0.63
1.22 1.20 1.17 1.09 1.08 1.05 0.95 0.85 0.77 0.68 0.62 0.57 0.46 0.36 0.30 0.29 0.29 0.27 0.24 0.22 0.22 0.21 0.16 0.12 0.12 0.14 0.10 0.02 0.02 0.03 0.08 0.14 0.18 0.20 0.19 0.18 0.23 0.23 0.33 0.43 0.59 0.73 0.88
1.07 1.15 1.24 1.27 1.21 1.07 0.87 0.76 0.68 0.57 0.48 0.38 0.30 0.25 0.22 0.18 0.16 0.17 0.18 0.19 0.19 0.17 0.12 0.10 0.12 0.14 0.11 0.02 0.00 0.02 0.06 0.12 0.15 0.20 0.23 0.18 0.17 0.25 0.42 0.60 0.80 0.93 1.05
1.02 1.07 1.12 1.11 1.03 0.91 0.78 0.70 0.59 0.47 0.34 0.25 0.20 0.17 0.13 0.10 0.10 0.14 0.16 0.16 0.14 0.14 0.13 0.13 0.15 0.13 0.07 0.03 0.00 0.01 0.04 0.08 0.13 0.21 0.30 0.32 0.25 0.32 0.52 0.72 0.84 1.00 1.07
0.93 0.92 0.89 0.85 0.74 0.64 0.60 0.59 0.50 0.34 0.23 0.18 0.16 0.12 0.09 0.05 0.06 0.13 0.16 0.15 0.16 0.16 0.15 0.15 0.15 0.14 0.12 0.05 0.02 0.00 0.01 0.04 0.16 0.31 0.35 0.38 0.35 0.41 0.61 0.77 0.97 1.16 1.26
0.74 0.70 0.61 0.54 0.49 0.43 0.43 0.43 0.35 0.24 0.19 0.18 0.17 0.13 0.09 0.08 0.07 0.12 0.14 0.14 0.15 0.13 0.11 0.12 0.14 0.14 0.16 0.11 0.02 0.01 0.02 0.05 0.15 0.29 0.36 0.40 0.42 0.58 0.90 1.08 1.21 1.34 1.39
0.53 0.47 0.40 0.35 0.32 0.28 0.26 0.24 0.20 0.18 0.19 0.21 0.18 0.15 0.15 0.13 0.11 0.11 0.09 0.10 0.10 0.10 0.10 0.12 0.15 0.17 0.17 0.11 0.07 0.08 0.09 0.10 0.17 0.31 0.44 0.54 0.61 0.78 1.07 1.28 1.44 1.48 1.36
0.31 0.27 0.25 0.22 0.19 0.15 0.14 0.13 0.12 0.14 0.20 0.19 0.15 0.13 0.13 0.13 0.13 0.11 0.05 0.04 0.05 0.03 0.06 0.10 0.12 0.15 0.13 0.07 0.07 0.10 0.11 0.13 0.17 0.29 0.46 0.61 0.73 0.92 1.11 1.27 1.34 1.34 1.23
0.20 0.18 0.17 0.15 0.12 0.09 0.08 0.07 0.07 0.10 0.18 0.17 0.13 0.10 0.08 0.08 0.09 0.15 0.12 0.03 0.01 0.01 0.02 0.03 0.05 0.06 0.07 0.05 0.07 0.10 0.13 0.17 0.23 0.33 0.48 0.60 0.71 0.88 1.07 1.19 1.19 1.11 1.04